ONEWEB-0252 (48970 NORAD) Tracking and Keplerian Element Data

This shows tracking and keplerian element data for the satellite.

Feedback or suggestion? Click here.




ElementValue
Catalog48970
NameONEWEB-0252
Epoch Orbit1299
Epoch Day262.25001157
Epoch Year2021
RAAN213.4448
Inclination87.8271
Eccentricity0.0011873
Argument of Perigee10.3249
Mean Anonmoly338.8475
Mean Motion13.6430397
Decay Rate1.5E-07
L11 48970U 21060D 21262.25001157 .00000015 00000-0 00000+0 0 9996
L22 48970 87.8271 213.4448 0011873 10.3249 338.8475 13.64303970 12993

Live tracking and technical data element details for ONEWEB-0252 (NORAD 48970). ONEWEB-0252 can be tracked NOW for your location showing map with azimuth and elevation plus other details from your city location.

Track the satellite on the map from your city or location and see movement details for azimuth, elevation, latitude, longitude, range, height, and movement on the map or in text.







IsCatalogInMostPopularTable: catalog: 48970, numindb: 17
Update: records affected: 1



GetName: 48970 ONEWEB-0252

Hit Count: updated at: Fri, 24 Sep 2021 17:45:54 GMT